TimeEST,TemperatureF,Dew PointF,Humidity,Sea Level PressureIn,VisibilityMPH,Wind Direction,Wind SpeedMPH,Gust SpeedMPH,PrecipitationIn,Events,Conditions,WindDirDegrees,DateUTC
12:00 AM,56,42,50,30.00,25,West,8.1,,,,Partly Cloudy,260,2013-05-17 14:00:00
12:00 AM,55.4,42.8,63,29.98,-9999.0,West,8.1,-,N/A,,Clear,260,2013-05-17 14:00:00
12:30 AM,55.4,42.8,63,29.98,-9999.0,WSW,5.8,-,N/A,,Clear,250,2013-05-17 14:30:00
1:00 AM,56,42,48,30.00,,East,4.6,,,,,100,2013-05-17 15:00:00
1:00 AM,55.4,42.8,63,29.98,-9999.0,East,4.6,-,N/A,,Clear,100,2013-05-17 15:00:00
1:30 AM,53.6,42.8,67,29.98,-9999.0,NE,4.6,-,N/A,,Clear,50,2013-05-17 15:30:00
2:00 AM,53.6,42.8,67,29.98,-9999.0,Calm,Calm,-,N/A,,Clear,0,2013-05-17 16:00:00
2:30 AM,55.4,42.8,63,29.98,-9999.0,SE,5.8,-,N/A,,Clear,140,2013-05-17 16:30:00
3:00 AM,54,43,57,29.99,25,Calm,Calm,,,,Partly Cloudy,,2013-05-17 17:00:00
3:00 AM,53.6,42.8,67,29.98,-9999.0,Calm,Calm,-,N/A,,Clear,0,2013-05-17 17:00:00
3:30 AM,51.8,42.8,71,29.98,-9999.0,Calm,Calm,-,N/A,,Clear,0,2013-05-17 17:30:00
4:00 AM,49,43,71,29.99,,SSE,1.2,,,,,160,2013-05-17 18:00:00
4:00 AM,50.0,42.8,76,29.98,-9999.0,SSE,1.2,-,N/A,,Clear,160,2013-05-17 18:00:00
4:30 AM,51.8,42.8,71,29.98,-9999.0,SW,5.8,-,N/A,,Clear,230,2013-05-17 18:30:00
5:00 AM,51.8,42.8,71,29.98,-9999.0,SE,1.2,-,N/A,,Clear,140,2013-05-17 19:00:00
5:30 AM,51.8,42.8,71,30.01,-9999.0,Calm,Calm,-,N/A,,Clear,0,2013-05-17 19:30:00
6:00 AM,49,42,68,30.01,25,South,4.6,,,,Partly Cloudy,180,2013-05-17 20:00:00
6:00 AM,48.2,41.0,76,30.01,-9999.0,South,4.6,-,N/A,,Clear,180,2013-05-17 20:00:00
6:30 AM,50.0,42.8,76,30.01,-9999.0,SSW,5.8,-,N/A,,Clear,210,2013-05-17 20:30:00
7:00 AM,49,44,76,30.02,,SW,3.5,,,,,220,2013-05-17 21:00:00
7:00 AM,50.0,44.6,82,30.01,-9999.0,SW,3.5,-,N/A,,Clear,220,2013-05-17 21:00:00
7:30 AM,53.6,46.4,77,30.01,-9999.0,SW,3.5,-,N/A,,Clear,230,2013-05-17 21:30:00
8:00 AM,59.0,46.4,63,30.04,-9999.0,South,3.5,-,N/A,,Clear,190,2013-05-17 22:00:00
8:30 AM,60.8,42.8,52,30.04,-9999.0,SW,5.8,-,N/A,,Clear,230,2013-05-17 22:30:00
9:00 AM,63,44,38,30.04,25,SW,4.6,,,,Partly Cloudy,230,2013-05-17 23:00:00
9:00 AM,62.6,42.8,48,30.04,-9999.0,SW,4.6,-,N/A,,Clear,230,2013-05-17 23:00:00
9:30 AM,66.2,39.2,37,30.04,-9999.0,SW,8.1,-,N/A,,Clear,230,2013-05-17 23:30:00
10:00 AM,67,39,24,30.02,,West,9.2,,,,,260,2013-05-18 00:00:00
10:00 AM,68.0,39.2,35,30.01,-9999.0,West,9.2,-,N/A,,Clear,260,2013-05-18 00:00:00
10:30 AM,68.0,39.2,35,30.01,-9999.0,WSW,10.4,-,N/A,,Clear,250,2013-05-18 00:30:00
11:00 AM,68.0,39.2,35,29.98,-9999.0,SW,15.0,-,N/A,,Clear,230,2013-05-18 01:00:00
11:30 AM,69.8,37.4,31,29.98,-9999.0,WSW,17.3,-,N/A,,Clear,240,2013-05-18 01:30:00
12:00 PM,69,38,21,29.97,25,WSW,19.6,,,,Partly Cloudy,240,2013-05-18 02:00:00
12:00 PM,69.8,37.4,31,29.95,-9999.0,WSW,19.6,-,N/A,,Clear,240,2013-05-18 02:00:00
12:30 PM,71.6,39.2,31,29.95,-9999.0,WSW,17.3,-,N/A,,Clear,250,2013-05-18 02:30:00
1:00 PM,71,38,19,29.94,,WSW,18.4,,,,,250,2013-05-18 03:00:00
1:00 PM,71.6,37.4,29,29.92,-9999.0,WSW,18.4,-,N/A,,Clear,250,2013-05-18 03:00:00
1:30 PM,71.6,35.6,27,29.92,-9999.0,WSW,18.4,-,N/A,,Clear,250,2013-05-18 03:30:00
2:00 PM,71.6,37.4,29,29.92,-9999.0,WSW,20.7,-,N/A,,Clear,250,2013-05-18 04:00:00
2:30 PM,71.6,37.4,29,29.89,-9999.0,WSW,19.6,-,N/A,,Clear,250,2013-05-18 04:30:00
2:51 PM,71.6,37.4,29,29.89,-9999.0,WSW,18.4,29.9,N/A,,Clear,250,2013-05-18 04:51:00
3:00 PM,71,37,18,29.91,25,West,20.7,,,,Partly Cloudy,260,2013-05-18 05:00:00
3:00 PM,71.6,37.4,29,29.89,-9999.0,West,20.7,-,N/A,,Clear,260,2013-05-18 05:00:00
3:06 PM,71.6,35.6,27,29.89,-9999.0,WSW,18.4,29.9,N/A,,Clear,250,2013-05-18 05:06:00
3:30 PM,69.8,33.8,27,29.89,-9999.0,West,19.6,-,N/A,,Clear,260,2013-05-18 05:30:00
4:00 PM,70,35,17,29.92,,West,17.3,,,,,260,2013-05-18 06:00:00
4:00 PM,69.8,35.6,28,29.92,-9999.0,West,17.3,-,N/A,,Clear,260,2013-05-18 06:00:00
4:30 PM,68.0,37.4,33,29.92,-9999.0,WSW,16.1,-,N/A,,Clear,250,2013-05-18 06:30:00
5:00 PM,66.2,39.2,37,29.92,-9999.0,West,9.2,-,N/A,,Clear,260,2013-05-18 07:00:00
5:30 PM,62.6,41.0,45,29.95,-9999.0,WSW,6.9,-,N/A,,Clear,250,2013-05-18 07:30:00
6:00 PM,62,40,33,29.96,25,West,8.1,,,,Partly Cloudy,260,2013-05-18 08:00:00
6:00 PM,62.6,41.0,45,29.95,-9999.0,West,8.1,-,N/A,,Clear,260,2013-05-18 08:00:00
6:30 PM,60.8,41.0,48,29.98,-9999.0,SW,5.8,-,N/A,,Clear,230,2013-05-18 08:30:00
7:00 PM,61,39,33,29.99,,WSW,11.5,,,,,250,2013-05-18 09:00:00
7:00 PM,60.8,39.2,45,29.98,-9999.0,WSW,11.5,-,N/A,,Clear,250,2013-05-18 09:00:00
7:30 PM,59.0,39.2,48,29.98,-9999.0,WSW,9.2,-,N/A,,Clear,250,2013-05-18 09:30:00
8:00 PM,59.0,41.0,51,30.01,-9999.0,West,8.1,-,N/A,,Clear,260,2013-05-18 10:00:00
8:30 PM,57.2,41.0,55,30.01,-9999.0,SSW,4.6,-,N/A,,Clear,200,2013-05-18 10:30:00
9:00 PM,55,43,53,30.02,25,SSW,4.6,,,,Partly Cloudy,210,2013-05-18 11:00:00
9:00 PM,55.4,42.8,63,30.01,-9999.0,SSW,4.6,-,N/A,,Clear,210,2013-05-18 11:00:00
9:30 PM,53.6,42.8,67,30.01,-9999.0,WSW,4.6,-,N/A,,Clear,250,2013-05-18 11:30:00
10:00 PM,55,42,51,30.03,,SW,4.6,,,,,230,2013-05-18 12:00:00
10:00 PM,55.4,42.8,63,30.01,-9999.0,SW,4.6,-,N/A,,Clear,230,2013-05-18 12:00:00
10:30 PM,53.6,41.0,62,30.01,-9999.0,SW,5.8,-,N/A,,Clear,220,2013-05-18 12:30:00
11:00 PM,53.6,41.0,62,30.01,-9999.0,West,10.4,-,N/A,,Clear,260,2013-05-18 13:00:00
11:30 PM,53.6,41.0,62,30.01,-9999.0,West,9.2,-,N/A,,Clear,260,2013-05-18 13:30:00